Regional Weather Roundup
Issued by NWS

Home | Current Version | Previous Version | Text Only | Print | Product List | Glossary On
Versions: 1 2 3 4 5 6 7 8 9 10 11 12 13 14 15 16 17 18 19 20 21 22 23 24 25 26 27 28 29 30 31 32 33 34 35 36 37 38 39 40 41 42 43 44 45 46 47 48 49 50
000
ASCA42 TJSJ 210211
RWRPR
PUERTO RICO/U.S. VIRGIN ISLANDS HOURLY WEATHER ROUNDUP
NATIONAL WEATHER SERVICE SAN JUAN PR
1000 PM AST MON OCT 20 2014

PRZ001-004-210300-
PUERTO RICO

CITY           SKY/WX    TMP DP  RH WIND       PRES   REMARKS
SAN JUAN LMM   PTCLDY    81  75  83 CALM      29.97R
CEIBA          PTCLDY    82  72  69 E8        29.98S
$$

PRZ006-007-210300-
U.S. VIRGIN ISLANDS

CITY           SKY/WX    TMP DP  RH WIND       PRES   REMARKS
$$

HOURLY WEATHER ROUNDUP FOR THE NEWS MEDIA

CITY           SKY/WX    TMP DP  RH WIND       PRES   REMARKS
MIAMI          CLOUDY    75  68  78 E5        29.99R
ORLANDO        CLOUDY    75  68  78 E5        29.99R
NEW YORK       MOCLDY    59  46  62 S14       29.99F
NEWARK         MOCLDY    55  42  61 CALM      29.98S
CHICAGO        MOCLDY    54  41  61 N12       29.98R
HARTFORD       MOCLDY    43  41  93 CALM      30.02S
BOSTON         MOCLDY    51  39  63 SW7       30.02R
DALLAS         PTCLDY    72  60  66 SE8       30.03R
PHILADELPHIA   MOCLDY    56  44  64 SW5       29.98S



USA.gov is the U.S. government's official web portal to all federal, state and local government web resources and services.